STARLINK-1423 (45710 NORAD) Tracking and Keplerian Element Data

This shows tracking and keplerian element data for the satellite.

Feedback or suggestion? Click here.




ElementValue
Catalog45710
NameSTARLINK-1423
Epoch Orbit1075
Epoch Day218.91667824
Epoch Year2020
RAAN221.2931
Inclination53.0002
Eccentricity0.0001483
Argument of Perigee62.8815
Mean Anonmoly213.4067
Mean Motion15.62722719
Decay Rate0.00055807
L11 45710U 20035BF 20218.91667824 .00055807 00000-0 61183-3 0 9990
L22 45710 53.0002 221.2931 0001483 62.8815 213.4067 15.62722719 10753

Live tracking and technical data element details for STARLINK-1423 (NORAD 45710). STARLINK-1423 can be tracked NOW for your location showing map with azimuth and elevation plus other details from your city location.

Track the satellite on the map from your city or location and see movement details for azimuth, elevation, latitude, longitude, range, height, and movement on the map or in text.







IsCatalogInMostPopularTable: catalog: 45710, numindb: 9
Update: records affected: 1



GetName: 45710 STARLINK-1423

Hit Count: updated at: Fri, 07 Aug 2020 23:49:02 GMT